Date,TemperatureHighF,TemperatureAvgF,TemperatureLowF,DewpointHighF,DewpointAvgF,DewpointLowF,HumidityHigh,HumidityAvg,HumidityLow,PressureMaxIn,PressureMinIn,WindSpeedMaxMPH,WindSpeedAvgMPH,GustSpeedMaxMPH,PrecipitationSumIn
2013-4-1,50,42,31,44,30,12,99,67,27,29.96,29.66,26,4,26,0.03
2013-4-2,42,34,28,21,15,11,68,47,31,30.15,29.95,26,6,26,0.00
2013-4-3,43,35,27,22,15,10,69,46,27,30.40,30.13,26,5,26,0.00
2013-4-4,52,51,49,24,22,21,37,33,30,30.24,30.16,9,3,10,0.00
2013-4-5,60,44,28,28,22,15,77,45,20,30.09,29.82,18,4,21,0.00
2013-4-6,54,42,29,22,17,11,60,38,21,30.34,30.09,21,3,22,0.00
2013-4-7,70,56,44,46,33,17,61,42,29,30.17,29.86,20,3,22,0.00
2013-4-8,74,61,42,50,44,38,89,58,36,30.08,29.85,15,1,15,0.00
2013-4-9,82,70,57,54,49,41,76,50,27,30.01,29.80,18,3,19,0.00
2013-4-10,83,68,60,63,58,52,97,71,48,29.89,29.72,21,2,22,0.97
2013-4-11,60,50,45,59,47,42,98,89,82,29.95,29.76,15,2,15,0.13
2013-4-12,50,48,45,47,45,42,97,91,83,29.87,29.64,26,4,26,0.48
2013-4-13,51,47,40,45,37,35,92,69,54,29.95,29.79,21,3,21,0.00
2013-4-14,59,49,38,39,34,27,82,57,38,30.14,29.95,18,3,18,0.00
2013-4-15,67,55,44,49,42,34,81,61,51,30.24,30.13,17,3,19,0.00
2013-4-16,70,60,54,60,53,46,96,78,66,30.22,30.03,14,2,15,0.24
2013-4-17,70,59,48,60,41,34,96,56,29,30.28,30.12,11,2,11,0.03
2013-4-18,64,53,47,59,46,39,85,76,67,30.21,29.92,17,2,17,0.00
2013-4-19,74,63,49,65,57,41,95,79,68,29.93,29.47,36,5,36,0.60
2013-4-20,50,46,37,41,33,21,71,61,41,30.39,29.73,27,7,27,0.00
2013-4-21,54,42,28,30,24,21,85,53,29,30.62,30.39,16,2,16,0.00
2013-4-22,59,47,34,34,30,25,83,55,28,30.59,30.39,20,2,20,0.00
2013-4-23,62,50,42,41,36,31,78,61,41,30.43,30.06,15,2,15,0.00
2013-4-24,73,57,41,59,48,36,96,74,51,30.07,29.68,29,4,29,0.31
2013-4-25,63,51,41,36,32,26,76,51,27,30.23,30.03,20,4,22,0.00
2013-4-27,60,54,50,41,40,39,68,59,46,30.24,30.23,6,2,6,0.00
2013-4-28,69,56,40,48,42,37,88,62,37,30.24,30.08,17,2,17,0.04
2013-4-29,57,55,52,56,50,41,97,84,59,30.11,30.04,14,2,14,0.07
2013-4-30,67,59,52,56,53,48,94,83,64,30.27,30.10,10,1,10,0.00